| time (UTC) | temp C | wind direction | speed KPH | gust KPH | rain 1hr cm | rain 24hr cm | rain mn cm | humidity % | barometer mb |
| 20260906114300 | 22 | 162 | 0.0 | 0.0 | 0.00 | 0.00 | 0.00 | 98 | 1012.9 |
| 20260906113755 | 22 | 162 | 0.0 | 0.0 | 0.00 | 0.00 | 0.00 | 98 | 1012.6 |
| 20260906113254 | 22 | 162 | 0.0 | 0.0 | 0.00 | 0.00 | 0.00 | 98 | 1012.9 |
| 20260906112755 | 22 | 162 | 0.0 | 0.0 | 0.00 | 0.00 | 0.00 | 98 | 1012.8 |
| 20260906112251 | 21 | 163 | 0.0 | 0.0 | 0.00 | 0.00 | 0.00 | 98 | 1012.5 |
| 20260906111751 | 21 | 163 | 0.0 | 0.0 | 0.00 | 0.00 | 0.00 | 98 | 1012.6 |
| 20260906111250 | 21 | 163 | 0.0 | 0.0 | 0.00 | 0.00 | 0.00 | 98 | 1012.7 |
| 20260906110745 | 21 | 163 | 0.0 | 0.0 | 0.00 | 0.00 | 0.00 | 98 | 1012.5 |
| 20260906110241 | 21 | 163 | 0.0 | 0.0 | 0.00 | 0.00 | 0.00 | 98 | 1012.5 |
| 20260906105740 | 21 | 163 | 0.0 | 0.0 | 0.00 | 0.00 | 0.00 | 98 | 1012.5 |
| 20260906105236 | 21 | 163 | 0.0 | 0.0 | 0.00 | 0.00 | 0.00 | 98 | 1012.4 |
| 20260906104731 | 21 | 163 | 0.0 | 0.0 | 0.00 | 0.00 | 0.00 | 98 | 1012.4 |
| 20260906104230 | 21 | 163 | 0.0 | 0.0 | 0.00 | 0.00 | 0.00 | 98 | 1012.3 |
| 20260906103727 | 21 | 163 | 0.0 | 0.0 | 0.00 | 0.00 | 0.00 | 98 | 1012.3 |
| 20260906103222 | 21 | 163 | 0.0 | 0.0 | 0.00 | 0.00 | 0.00 | 98 | 1012.4 |
| 20260906102718 | 21 | 163 | 0.0 | 0.0 | 0.00 | 0.00 | 0.00 | 98 | 1012.2 |
| 20260906102217 | 21 | 163 | 0.0 | 0.0 | 0.00 | 0.00 | 0.00 | 98 | 1012.2 |
| 20260906101712 | 21 | 163 | 0.0 | 0.0 | 0.00 | 0.00 | 0.00 | 98 | 1012.2 |
| 20260906101207 | 21 | 163 | 0.0 | 0.0 | 0.00 | 0.00 | 0.00 | 98 | 1012.0 |
| 20260906100703 | 21 | 163 | 0.0 | 0.0 | 0.00 | 0.00 | 0.00 | 98 | 1011.9 |
| 20260906100203 | 21 | 163 | 0.0 | 0.0 | 0.00 | 0.00 | 0.00 | 98 | 1011.8 |
| 20260906095657 | 21 | 163 | 0.0 | 0.0 | 0.00 | 0.00 | 0.00 | 98 | 1011.7 |
| 20260906095153 | 21 | 163 | 0.0 | 0.0 | 0.00 | 0.00 | 0.00 | 98 | 1011.7 |
| 20260906094651 | 21 | 163 | 0.0 | 0.0 | 0.00 | 0.00 | 0.00 | 98 | 1011.7 |
| 20260906094147 | 21 | 163 | 0.0 | 0.0 | 0.00 | 0.00 | 0.00 | 98 | 1011.4 |
| 20260906093644 | 21 | 163 | 0.0 | 0.0 | 0.00 | 0.00 | 0.00 | 98 | 1011.6 |
| 20260906093144 | 21 | 163 | 0.0 | 0.0 | 0.00 | 0.00 | 0.00 | 98 | 1011.6 |
| 20260906092639 | 21 | 163 | 0.0 | 0.0 | 0.00 | 0.00 | 0.00 | 97 | 1011.6 |
| 20260906092139 | 22 | 163 | 0.0 | 0.0 | 0.00 | 0.00 | 0.00 | 97 | 1011.5 |
| 20260906091635 | 22 | 163 | 0.0 | 0.0 | 0.00 | 0.00 | 0.00 | 97 | 1011.8 |
| 20260906091132 | 22 | 163 | 0.0 | 0.0 | 0.00 | 0.00 | 0.00 | 97 | 1011.5 |
| 20260906090627 | 22 | 163 | 0.0 | 0.0 | 0.00 | 0.00 | 0.00 | 97 | 1011.4 |
| 20260906090126 | 22 | 163 | 0.0 | 0.0 | 0.00 | 0.00 | 0.00 | 97 | 1011.5 |
| 20260906085626 | 22 | 163 | 0.0 | 0.0 | 0.00 | 0.00 | 0.00 | 97 | 1011.7 |
| 20260906085120 | 22 | 163 | 0.0 | 0.0 | 0.00 | 0.00 | 0.00 | 98 | 1011.7 |
| 20260906084615 | 22 | 163 | 0.0 | 0.0 | 0.00 | 0.00 | 0.00 | 98 | 1011.6 |
| 20260906084114 | 22 | 163 | 0.0 | 0.0 | 0.00 | 0.00 | 0.00 | 97 | 1011.7 |
| 20260906083609 | 22 | 163 | 0.0 | 0.0 | 0.00 | 0.00 | 0.00 | 97 | 1011.6 |
| 20260906083109 | 22 | 163 | 0.0 | 0.0 | 0.00 | 0.00 | 0.00 | 97 | 1011.6 |
| 20260906082604 | 22 | 163 | 0.0 | 0.0 | 0.00 | 0.00 | 0.00 | 97 | 1011.7 |
| 20260906082100 | 22 | 163 | 0.0 | 0.0 | 0.00 | 0.00 | 0.00 | 97 | 1011.8 |
| 20260906081556 | 22 | 163 | 0.0 | 0.0 | 0.00 | 0.00 | 0.00 | 97 | 1011.5 |
| 20260906081051 | 22 | 163 | 0.0 | 0.0 | 0.00 | 0.00 | 0.00 | 97 | 1011.5 |
| 20260906080548 | 22 | 163 | 0.0 | 0.0 | 0.00 | 0.00 | 0.00 | 97 | 1011.6 |
| 20260906080044 | 22 | 164 | 0.0 | 0.0 | 0.00 | 0.00 | 0.00 | 97 | 1011.6 |
| 20260906075543 | 22 | 163 | 0.0 | 0.0 | 0.00 | 0.00 | 0.00 | 98 | 1011.8 |
| 20260906075038 | 22 | 164 | 0.0 | 0.0 | 0.00 | 0.00 | 0.00 | 97 | 1011.7 |
| 20260906074533 | 22 | 164 | 0.0 | 0.0 | 0.00 | 0.00 | 0.00 | 97 | 1011.7 |
| 20260906074031 | 22 | 160 | 0.0 | 0.0 | 0.00 | 0.00 | 0.00 | 97 | 1011.8 |
| 20260906073526 | 22 | 163 | 0.0 | 0.0 | 0.00 | 0.00 | 0.00 | 97 | 1011.7 |
| 20260906073023 | 22 | 163 | 0.0 | 0.0 | 0.00 | 0.00 | 0.00 | 97 | 1011.7 |
| 20260906072517 | 22 | 163 | 0.0 | 0.0 | 0.00 | 0.00 | 0.00 | 97 | 1011.7 |
| 20260906072014 | 22 | 164 | 0.0 | 0.0 | 0.00 | 0.00 | 0.00 | 97 | 1011.7 |
| 20260906071509 | 22 | 164 | 0.0 | 0.0 | 0.00 | 0.00 | 0.00 | 97 | 1011.9 |
| 20260906071004 | 22 | 164 | 0.0 | 0.0 | 0.00 | 0.00 | 0.00 | 97 | 1012.0 |
| 20260906070501 | 22 | 164 | 0.0 | 0.0 | 0.00 | 0.00 | 0.00 | 97 | 1011.8 |
| 20260906065956 | 22 | 164 | 0.0 | 0.0 | 0.00 | 0.00 | 0.00 | 97 | 1011.9 |
| 20260906065455 | 22 | 165 | 0.0 | 0.0 | 0.00 | 0.00 | 0.00 | 97 | 1011.7 |
| 20260906064951 | 22 | 161 | 0.0 | 0.0 | 0.00 | 0.00 | 0.00 | 97 | 1011.7 |
| 20260906064447 | 22 | 164 | 0.0 | 0.0 | 0.00 | 0.00 | 0.00 | 97 | 1011.8 |
| 20260906063942 | 22 | 161 | 0.0 | 0.0 | 0.00 | 0.00 | 0.00 | 97 | 1012.1 |
| 20260906063438 | 22 | 172 | 0.0 | 0.0 | 0.00 | 0.00 | 0.00 | 97 | 1012.1 |
| 20260906062938 | 22 | 165 | 0.0 | 0.0 | 0.00 | 0.00 | 0.00 | 97 | 1011.9 |
| 20260906062433 | 22 | 166 | 0.0 | 0.0 | 0.00 | 0.00 | 0.00 | 97 | 1011.8 |
| 20260906061928 | 22 | 158 | 0.0 | 0.0 | 0.00 | 0.00 | 0.00 | 97 | 1011.9 |
| 20260906061424 | 22 | 164 | 0.0 | 0.0 | 0.00 | 0.00 | 0.00 | 97 | 1011.8 |
| 20260906060924 | 22 | 163 | 0.0 | 0.0 | 0.00 | 0.00 | 0.00 | 97 | 1011.9 |
| 20260906060421 | 22 | 167 | 0.0 | 0.0 | 0.00 | 0.00 | 0.00 | 97 | 1012.0 |
| 20260906055917 | 22 | 160 | 0.0 | 0.0 | 0.00 | 0.00 | 0.00 | 97 | 1012.1 |
| 20260906055413 | 22 | 166 | 0.0 | 0.0 | 0.00 | 0.00 | 0.00 | 97 | 1012.1 |
| 20260906054908 | 22 | 162 | 0.0 | 0.0 | 0.00 | 0.00 | 0.00 | 97 | 1011.9 |
| 20260906054403 | 23 | 167 | 0.0 | 0.0 | 0.00 | 0.00 | 0.00 | 97 | 1012.1 |
| 20260906053859 | 23 | 161 | 0.0 | 0.0 | 0.00 | 0.00 | 0.00 | 97 | 1012.1 |
| 20260906053354 | 23 | 170 | 0.0 | 0.0 | 0.00 | 0.00 | 0.00 | 97 | 1012.2 |
| 20260906052850 | 23 | 160 | 0.0 | 0.0 | 0.00 | 0.00 | 0.00 | 97 | 1012.1 |
| 20260906052346 | 23 | 161 | 0.0 | 0.0 | 0.00 | 0.00 | 0.00 | 97 | 1011.9 |
| 20260906051843 | 23 | 155 | 0.0 | 0.0 | 0.00 | 0.00 | 0.00 | 97 | 1011.8 |
| 20260906051342 | 23 | 156 | 0.0 | 0.0 | 0.00 | 0.00 | 0.00 | 97 | 1011.8 |
| 20260906050838 | 23 | 157 | 0.0 | 0.0 | 0.00 | 0.00 | 0.00 | 97 | 1011.6 |
| 20260906050333 | 23 | 166 | 0.0 | 0.0 | 0.00 | 0.00 | 0.00 | 97 | 1011.9 |
| 20260906045832 | 23 | 163 | 0.0 | 0.0 | 0.00 | 0.00 | 0.00 | 97 | 1011.8 |
| 20260906045326 | 23 | 165 | 0.0 | 0.0 | 0.00 | 0.00 | 0.00 | 97 | 1011.9 |
| 20260906044823 | 23 | 161 | 0.0 | 0.0 | 0.00 | 0.00 | 0.00 | 97 | 1011.9 |
| 20260906044323 | 23 | 155 | 0.0 | 0.0 | 0.00 | 0.00 | 0.00 | 97 | 1012.0 |
| 20260906043819 | 23 | 150 | 0.0 | 0.0 | 0.00 | 0.00 | 0.00 | 97 | 1012.1 |
| 20260906043315 | 23 | 159 | 0.0 | 0.0 | 0.00 | 0.00 | 0.00 | 97 | 1012.1 |
| 20260906042814 | 23 | 157 | 0.0 | 0.0 | 0.00 | 0.00 | 0.00 | 97 | 1012.1 |
| 20260906042314 | 23 | 144 | 0.0 | 0.0 | 0.00 | 0.00 | 0.00 | 97 | 1012.4 |
| 20260906041809 | 22 | 161 | 0.0 | 0.0 | 0.00 | 0.00 | 0.00 | 97 | 1012.6 |
| 20260906041304 | 22 | 162 | 0.0 | 0.0 | 0.00 | 0.00 | 0.00 | 97 | 1012.7 |
| 20260906040759 | 22 | 166 | 0.0 | 0.0 | 0.00 | 0.00 | 0.00 | 97 | 1012.9 |
| 20260906040255 | 23 | 160 | 0.0 | 0.0 | 0.00 | 0.00 | 0.00 | 97 | 1012.8 |
| 20260906035750 | 23 | 164 | 0.0 | 0.0 | 0.00 | 0.20 | 0.20 | 97 | 1012.9 |
| 20260906035246 | 22 | 154 | 0.0 | 0.0 | 0.00 | 0.20 | 0.20 | 96 | 1012.8 |
| 20260906034746 | 23 | 162 | 0.0 | 0.0 | 0.00 | 0.20 | 0.20 | 96 | 1012.8 |
| 20260906034240 | 23 | 162 | 0.0 | 0.0 | 0.00 | 0.20 | 0.20 | 96 | 1012.9 |
| 20260906033736 | 23 | 162 | 0.0 | 0.0 | 0.00 | 0.20 | 0.20 | 96 | 1012.9 |
| 20260906033236 | 23 | 162 | 0.0 | 0.0 | 0.00 | 0.20 | 0.20 | 96 | 1012.8 |
| 20260906032732 | 23 | 157 | 0.0 | 0.0 | 0.00 | 0.20 | 0.20 | 96 | 1013.0 |
| 20260906032232 | 23 | 158 | 0.0 | 0.0 | 0.00 | 0.20 | 0.20 | 96 | 1013.2 |
| 20260906031728 | 23 | 159 | 0.0 | 0.0 | 0.00 | 0.20 | 0.20 | 96 | 1013.1 |
| 20260906031223 | 23 | 162 | 0.0 | 0.0 | 0.00 | 0.20 | 0.20 | 96 | 1013.4 |
| 20260906030723 | 23 | 161 | 0.0 | 0.0 | 0.00 | 0.20 | 0.20 | 96 | 1013.2 |
| 20260906030218 | 23 | 158 | 0.0 | 0.0 | 0.00 | 0.20 | 0.20 | 96 | 1013.2 |
| 20260906025717 | 23 | 161 | 0.0 | 0.0 | 0.00 | 0.20 | 0.20 | 96 | 1013.0 |
| 20260906025212 | 22 | 165 | 0.0 | 0.0 | 0.00 | 0.20 | 0.20 | 96 | 1013.1 |
| 20260906024711 | 23 | 164 | 0.0 | 0.0 | 0.00 | 0.20 | 0.20 | 96 | 1013.2 |
| 20260906024210 | 22 | 161 | 0.0 | 0.0 | 0.00 | 0.20 | 0.20 | 96 | 1013.2 |
| 20260906023707 | 22 | 158 | 0.0 | 0.0 | 0.00 | 0.20 | 0.20 | 96 | 1013.1 |
| 20260906023207 | 22 | 158 | 0.0 | 0.0 | 0.00 | 0.20 | 0.20 | 96 | 1013.2 |
| 20260906022702 | 22 | 157 | 0.0 | 0.0 | 0.00 | 0.20 | 0.20 | 96 | 1013.2 |
| 20260906022158 | 22 | 153 | 0.0 | 0.0 | 0.00 | 0.20 | 0.20 | 95 | 1012.9 |
| 20260906021654 | 22 | 166 | 0.0 | 0.0 | 0.00 | 0.20 | 0.20 | 95 | 1013.0 |
| 20260906021152 | 22 | 157 | 0.0 | 0.0 | 0.00 | 0.20 | 0.20 | 95 | 1013.1 |
| 20260906020647 | -17 | 0.0 | 0.0 | 0.00 | 0.00 | 0.00 | 1013.4 | ||
| 20260906020142 | -17 | 0.0 | 0.0 | 0.00 | 0.00 | 0.00 | 1013.2 | ||
| 20260906015642 | 23 | 158 | 0.0 | 0.0 | 0.00 | 0.20 | 0.20 | 95 | 1013.2 |
| 20260906015141 | 23 | 158 | 0.0 | 0.0 | 0.00 | 0.20 | 0.20 | 95 | 1013.2 |
| 20260906014641 | 22 | 158 | 0.0 | 0.0 | 0.00 | 0.20 | 0.20 | 95 | 1013.4 |
| 20260906014137 | 22 | 166 | 0.0 | 0.0 | 0.00 | 0.20 | 0.20 | 95 | 1013.5 |
| 20260906013632 | 22 | 168 | 0.0 | 0.0 | 0.00 | 0.20 | 0.20 | 95 | 1013.6 |
| 20260906013128 | 22 | 160 | 0.0 | 0.0 | 0.00 | 0.20 | 0.20 | 95 | 1013.5 |
| 20260906012628 | 23 | 156 | 0.0 | 0.0 | 0.00 | 0.20 | 0.20 | 95 | 1013.5 |
| 20260906012122 | 23 | 157 | 0.0 | 0.0 | 0.00 | 0.20 | 0.20 | 95 | 1013.4 |
| 20260906011618 | 23 | 197 | 3.2 | 4.8 | 0.00 | 0.20 | 0.20 | 95 | 1013.3 |
| 20260906011113 | 23 | 162 | 0.0 | 0.0 | 0.00 | 0.20 | 0.20 | 95 | 1013.1 |
| 20260906010608 | 23 | 158 | 0.0 | 0.0 | 0.00 | 0.20 | 0.20 | 95 | 1013.1 |
| 20260906010104 | 23 | 159 | 0.0 | 0.0 | 0.00 | 0.20 | 0.20 | 95 | 1013.0 |
| 20260906005604 | 23 | 157 | 0.0 | 0.0 | 0.00 | 0.20 | 0.20 | 95 | 1012.8 |
| 20260906005103 | 23 | 158 | 0.0 | 0.0 | 0.00 | 0.20 | 0.20 | 95 | 1012.6 |
| 20260906004602 | 23 | 162 | 0.0 | 0.0 | 0.00 | 0.20 | 0.20 | 95 | 1012.4 |
| 20260906004057 | 23 | 159 | 0.0 | 0.0 | 0.00 | 0.20 | 0.20 | 95 | 1012.5 |
| 20260906003552 | 23 | 162 | 0.0 | 0.0 | 0.00 | 0.20 | 0.20 | 95 | 1012.6 |
| 20260906003048 | 23 | 157 | 0.0 | 0.0 | 0.00 | 0.20 | 0.20 | 95 | 1012.6 |
| 20260906002549 | 23 | 157 | 0.0 | 0.0 | 0.00 | 0.20 | 0.20 | 95 | 1012.5 |
| 20260906002044 | 23 | 157 | 0.0 | 0.0 | 0.00 | 0.20 | 0.20 | 95 | 1012.4 |
| 20260906001539 | 23 | 157 | 0.0 | 0.0 | 0.00 | 0.20 | 0.20 | 95 | 1012.3 |
| 20260906001039 | 23 | 159 | 0.0 | 0.0 | 0.00 | 0.20 | 0.20 | 94 | 1012.4 |
| 20260906000535 | 23 | 165 | 0.0 | 1.6 | 0.00 | 0.20 | 0.20 | 94 | 1012.1 |
| 20260906000030 | 23 | 157 | 0.0 | 0.0 | 0.00 | 0.20 | 0.20 | 95 | 1012.0 |
| 20260905235530 | 23 | 157 | 0.0 | 0.0 | 0.00 | 0.20 | 0.20 | 95 | 1012.2 |
| 20260905235025 | 23 | 156 | 0.0 | 0.0 | 0.00 | 0.20 | 0.20 | 94 | 1012.2 |
| 20260905234521 | -17 | 0.0 | 0.0 | 0.00 | 0.00 | 0.00 | 1012.4 | ||
| 20260905234021 | -17 | 0.0 | 0.0 | 0.00 | 0.00 | 0.00 | 1012.5 | ||
| 20260905233516 | 23 | 158 | 0.0 | 0.0 | 0.00 | 0.20 | 0.20 | 93 | 1012.4 |
| 20260905233015 | 23 | 158 | 0.0 | 0.0 | 0.00 | 0.20 | 0.20 | 93 | 1012.3 |
| 20260905232511 | 23 | 157 | 0.0 | 0.0 | 0.00 | 0.20 | 0.20 | 92 | 1012.9 |
| 20260905232006 | 23 | 157 | 0.0 | 0.0 | 0.13 | 0.20 | 0.20 | 93 | 1013.1 |
| 20260905231501 | 24 | 158 | 0.0 | 0.0 | 0.30 | 0.20 | 0.20 | 92 | 1012.9 |
| 20260905230958 | 24 | 157 | 0.0 | 0.0 | 0.18 | 0.18 | 0.18 | 91 | 1013.3 |
| 20260905230456 | 25 | 157 | 0.0 | 0.0 | 0.30 | 0.15 | 0.15 | 87 | 1013.3 |
| 20260905225954 | 26 | 160 | 1.6 | 3.2 | 0.89 | 0.15 | 0.15 | 87 | 1013.8 |
| 20260905225450 | 27 | 176 | 0.0 | 1.6 | 0.79 | 0.13 | 0.13 | 83 | 1013.8 |
| 20260905224945 | 29 | 243 | 4.8 | 4.8 | 0.00 | 0.00 | 0.00 | 73 | 1014.0 |
| 20260905224440 | 29 | 167 | 3.2 | 3.2 | 0.00 | 0.00 | 0.00 | 75 | 1013.9 |
| 20260905223939 | 30 | 166 | 0.0 | 1.6 | 0.00 | 0.00 | 0.00 | 83 | 1012.2 |
| 20260905223437 | 30 | 156 | 0.0 | 0.0 | 0.00 | 0.00 | 0.00 | 83 | 1011.9 |
| 20260905222932 | 30 | 104 | 0.0 | 0.0 | 0.00 | 0.00 | 0.00 | 81 | 1011.2 |
| 20260905222432 | 30 | 144 | 1.6 | 1.6 | 0.00 | 0.00 | 0.00 | 80 | 1010.8 |
| 20260905221927 | 30 | 155 | 0.0 | 0.0 | 0.00 | 0.00 | 0.00 | 79 | 1011.6 |
| 20260905221424 | 31 | 144 | 0.0 | 0.0 | 0.00 | 0.00 | 0.00 | 78 | 1011.7 |
| 20260905220920 | 31 | 161 | 0.0 | 0.0 | 0.00 | 0.00 | 0.00 | 77 | 1011.5 |
| 20260905220416 | 31 | 172 | 0.0 | 1.6 | 0.00 | 0.00 | 0.00 | 76 | 1011.2 |
| 20260905215915 | 31 | 153 | 0.0 | 0.0 | 0.00 | 0.00 | 0.00 | 76 | 1011.0 |
| 20260905215410 | 32 | 154 | 0.0 | 1.6 | 0.00 | 0.00 | 0.00 | 74 | 1010.8 |
| 20260905214907 | 32 | 173 | 0.0 | 1.6 | 0.00 | 0.00 | 0.00 | 73 | 1011.1 |
| 20260905214402 | 32 | 118 | 1.6 | 3.2 | 0.00 | 0.00 | 0.00 | 72 | 1010.7 |
| 20260905213857 | 34 | 63 | 3.2 | 3.2 | 0.00 | 0.00 | 0.00 | 68 | 1011.0 |
| 20260905213353 | 35 | 171 | 0.0 | 0.0 | 0.00 | 0.00 | 0.00 | 66 | 1010.7 |
| 20260905212854 | 34 | 137 | 1.6 | 3.2 | 0.00 | 0.00 | 0.00 | 67 | 1010.9 |
| 20260905212349 | 34 | 133 | 3.2 | 4.8 | 0.00 | 0.00 | 0.00 | 66 | 1010.8 |
| 20260905211847 | 35 | 112 | 0.0 | 0.0 | 0.00 | 0.00 | 0.00 | 67 | 1011.0 |
| 20260905211344 | 34 | 162 | 0.0 | 0.0 | 0.00 | 0.00 | 0.00 | 68 | 1011.0 |
| 20260905210840 | 34 | 110 | 3.2 | 4.8 | 0.00 | 0.00 | 0.00 | 68 | 1010.9 |
| 20260905210340 | 34 | 213 | 1.6 | 3.2 | 0.00 | 0.00 | 0.00 | 68 | 1011.1 |
| 20260905205838 | 33 | 171 | 1.6 | 1.6 | 0.00 | 0.00 | 0.00 | 71 | 1010.9 |
| 20260905205333 | 34 | 111 | 1.6 | 1.6 | 0.00 | 0.00 | 0.00 | 68 | 1010.8 |
| 20260905204832 | 33 | 162 | 1.6 | 1.6 | 0.00 | 0.00 | 0.00 | 68 | 1010.9 |
| 20260905204329 | 34 | 119 | 1.6 | 3.2 | 0.00 | 0.00 | 0.00 | 68 | 1010.9 |
| 20260905203827 | 33 | 165 | 1.6 | 1.6 | 0.00 | 0.00 | 0.00 | 69 | 1010.9 |
| 20260905203323 | 34 | 158 | 3.2 | 4.8 | 0.00 | 0.00 | 0.00 | 66 | 1010.9 |
| 20260905202819 | 34 | 105 | 1.6 | 3.2 | 0.00 | 0.00 | 0.00 | 67 | 1010.6 |
| 20260905202313 | 34 | 171 | 1.6 | 1.6 | 0.00 | 0.00 | 0.00 | 66 | 1010.7 |
| 20260905201809 | 34 | 185 | 1.6 | 3.2 | 0.00 | 0.00 | 0.00 | 67 | 1010.9 |
| 20260905201305 | 35 | 108 | 1.6 | 1.6 | 0.00 | 0.00 | 0.00 | 65 | 1011.1 |
| 20260905200805 | 36 | 44 | 3.2 | 4.8 | 0.00 | 0.00 | 0.00 | 61 | 1010.9 |
| 20260905200301 | 35 | 158 | 3.2 | 3.2 | 0.00 | 0.00 | 0.00 | 63 | 1010.7 |
| 20260905195758 | 35 | 111 | 1.6 | 3.2 | 0.00 | 0.00 | 0.00 | 62 | 1011.0 |
| 20260905195254 | 35 | 171 | 3.2 | 4.8 | 0.00 | 0.00 | 0.00 | 62 | 1010.9 |
| 20260905194749 | 33 | 160 | 0.0 | 1.6 | 0.00 | 0.00 | 0.00 | 68 | 1011.0 |
| 20260905194249 | 35 | 236 | 3.2 | 3.2 | 0.00 | 0.00 | 0.00 | 64 | 1011.1 |
| 20260905193748 | 34 | 100 | 3.2 | 3.2 | 0.00 | 0.00 | 0.00 | 66 | 1011.1 |
| 20260905193243 | 35 | 123 | 0.0 | 1.6 | 0.00 | 0.00 | 0.00 | 66 | 1011.1 |
| 20260905192739 | 34 | 181 | 1.6 | 1.6 | 0.00 | 0.00 | 0.00 | 65 | 1011.3 |
| 20260905192235 | 34 | 164 | 1.6 | 3.2 | 0.00 | 0.00 | 0.00 | 65 | 1011.2 |
| 20260905191734 | 34 | 351 | 8.0 | 9.7 | 0.00 | 0.00 | 0.00 | 65 | 1011.4 |
| 20260905191233 | 35 | 81 | 1.6 | 4.8 | 0.00 | 0.00 | 0.00 | 66 | 1011.5 |
| 20260905190732 | 35 | 164 | 1.6 | 1.6 | 0.00 | 0.00 | 0.00 | 64 | 1011.8 |
| 20260905190231 | 35 | 176 | 4.8 | 9.7 | 0.00 | 0.00 | 0.00 | 62 | 1011.7 |
| 20260905185730 | 36 | 82 | 3.2 | 4.8 | 0.00 | 0.00 | 0.00 | 61 | 1011.7 |
| 20260905185225 | 36 | 131 | 1.6 | 1.6 | 0.00 | 0.00 | 0.00 | 62 | 1011.8 |
| 20260905184719 | 36 | 157 | 1.6 | 1.6 | 0.00 | 0.00 | 0.00 | 62 | 1012.0 |
| 20260905184218 | 35 | 124 | 0.0 | 0.0 | 0.00 | 0.00 | 0.00 | 63 | 1012.2 |
| 20260905183718 | 36 | 164 | 0.0 | 0.0 | 0.00 | 0.00 | 0.00 | 61 | 1012.2 |
| 20260905183213 | 35 | 163 | 0.0 | 1.6 | 0.00 | 0.00 | 0.00 | 63 | 1012.1 |
| 20260905182713 | 35 | 173 | 1.6 | 3.2 | 0.00 | 0.00 | 0.00 | 61 | 1012.2 |
| 20260905182213 | 35 | 97 | 0.0 | 1.6 | 0.00 | 0.00 | 0.00 | 63 | 1012.2 |
| 20260905181708 | 35 | 152 | 4.8 | 4.8 | 0.00 | 0.00 | 0.00 | 62 | 1012.1 |
| 20260905181207 | 35 | 132 | 3.2 | 4.8 | 0.00 | 0.00 | 0.00 | 63 | 1012.2 |
| 20260905180701 | 35 | 115 | 0.0 | 1.6 | 0.00 | 0.00 | 0.00 | 62 | 1012.5 |
| 20260905180157 | 36 | 122 | 0.0 | 0.0 | 0.00 | 0.00 | 0.00 | 62 | 1012.4 |
| 20260905175656 | 36 | 75 | 1.6 | 4.8 | 0.00 | 0.00 | 0.00 | 62 | 1012.5 |
| 20260905175151 | 35 | 163 | 1.6 | 1.6 | 0.00 | 0.00 | 0.00 | 63 | 1012.6 |
| 20260905174647 | 35 | 159 | 0.0 | 1.6 | 0.00 | 0.00 | 0.00 | 65 | 1012.6 |
| 20260905174142 | 35 | 126 | 1.6 | 1.6 | 0.00 | 0.00 | 0.00 | 64 | 1012.7 |
| 20260905173638 | 35 | 145 | 0.0 | 1.6 | 0.00 | 0.00 | 0.00 | 62 | 1012.8 |
| 20260905173134 | 35 | 133 | 3.2 | 3.2 | 0.00 | 0.00 | 0.00 | 61 | 1012.7 |
| 20260905172632 | 36 | 192 | 1.6 | 3.2 | 0.00 | 0.00 | 0.00 | 57 | 1013.0 |
| 20260905172127 | 35 | 142 | 0.0 | 0.0 | 0.00 | 0.00 | 0.00 | 61 | 1013.2 |
| 20260905171624 | 35 | 6 | 4.8 | 4.8 | 0.00 | 0.00 | 0.00 | 59 | 1013.0 |
| 20260905171120 | 35 | 148 | 3.2 | 3.2 | 0.00 | 0.00 | 0.00 | 58 | 1013.1 |
| 20260905170616 | 35 | 13 | 6.4 | 6.4 | 0.00 | 0.00 | 0.00 | 59 | 1013.1 |
| 20260905170111 | 35 | 169 | 1.6 | 1.6 | 0.00 | 0.00 | 0.00 | 60 | 1013.4 |
| 20260905165605 | 35 | 16 | 6.4 | 9.7 | 0.00 | 0.00 | 0.00 | 59 | 1013.1 |
| 20260905165101 | 34 | 277 | 1.6 | 1.6 | 0.00 | 0.00 | 0.00 | 62 | 1013.3 |
| 20260905164556 | 35 | 266 | 3.2 | 3.2 | 0.00 | 0.00 | 0.00 | 61 | 1013.4 |
| 20260905164056 | 35 | 2 | 1.6 | 3.2 | 0.00 | 0.00 | 0.00 | 62 | 1013.6 |
| 20260905163552 | 35 | 157 | 1.6 | 3.2 | 0.00 | 0.00 | 0.00 | 61 | 1013.6 |
| 20260905163048 | 34 | 151 | 1.6 | 1.6 | 0.00 | 0.00 | 0.00 | 63 | 1013.6 |
| 20260905162544 | 35 | 119 | 1.6 | 1.6 | 0.00 | 0.00 | 0.00 | 62 | 1013.7 |
| 20260905162043 | 34 | 143 | 1.6 | 3.2 | 0.00 | 0.00 | 0.00 | 63 | 1013.8 |
| 20260905161543 | 34 | 144 | 1.6 | 3.2 | 0.00 | 0.00 | 0.00 | 64 | 1013.8 |
| 20260905161041 | 33 | 12 | 6.4 | 9.7 | 0.00 | 0.00 | 0.00 | 65 | 1013.9 |
| 20260905160539 | 33 | 12 | 6.4 | 9.7 | 0.00 | 0.00 | 0.00 | 65 | 1014.1 |
| 20260905160034 | 33 | 164 | 1.6 | 1.6 | 0.00 | 0.00 | 0.00 | 66 | 1014.2 |
| 20260905155534 | 33 | 275 | 3.2 | 3.2 | 0.00 | 0.00 | 0.00 | 67 | 1014.2 |
| 20260905155033 | 33 | 24 | 4.8 | 6.4 | 0.00 | 0.00 | 0.00 | 66 | 1014.4 |
| 20260905154528 | 33 | 156 | 0.0 | 0.0 | 0.00 | 0.00 | 0.00 | 67 | 1014.5 |
| 20260905154024 | 32 | 167 | 1.6 | 1.6 | 0.00 | 0.00 | 0.00 | 69 | 1014.4 |
| 20260905153520 | 32 | 162 | 3.2 | 4.8 | 0.00 | 0.00 | 0.00 | 70 | 1014.4 |
| 20260905153019 | 32 | 33 | 3.2 | 3.2 | 0.00 | 0.00 | 0.00 | 68 | 1014.4 |
| 20260905152519 | 32 | 49 | 0.0 | 0.0 | 0.00 | 0.00 | 0.00 | 69 | 1014.5 |
| 20260905152015 | 32 | 165 | 0.0 | 0.0 | 0.00 | 0.00 | 0.00 | 72 | 1014.5 |
| 20260905151510 | 32 | 74 | 1.6 | 3.2 | 0.00 | 0.00 | 0.00 | 69 | 1014.6 |
| 20260905151005 | 32 | 118 | 0.0 | 0.0 | 0.00 | 0.00 | 0.00 | 70 | 1014.6 |
| 20260905150500 | 32 | 121 | 3.2 | 4.8 | 0.00 | 0.00 | 0.00 | 70 | 1014.5 |
| 20260905145956 | 31 | 156 | 0.0 | 1.6 | 0.00 | 0.00 | 0.00 | 74 | 1014.6 |
| 20260905145451 | 31 | 293 | 3.2 | 4.8 | 0.00 | 0.00 | 0.00 | 72 | 1014.7 |
| 20260905144950 | 31 | 251 | 3.2 | 4.8 | 0.00 | 0.00 | 0.00 | 73 | 1014.8 |
| 20260905144446 | 31 | 290 | 4.8 | 4.8 | 0.00 | 0.00 | 0.00 | 73 | 1014.7 |
| 20260905143945 | 31 | 143 | 1.6 | 3.2 | 0.00 | 0.00 | 0.00 | 74 | 1014.7 |
| 20260905143444 | 31 | 259 | 3.2 | 4.8 | 0.00 | 0.00 | 0.00 | 73 | 1014.9 |
| 20260905142939 | 31 | 169 | 3.2 | 4.8 | 0.00 | 0.00 | 0.00 | 73 | 1014.8 |
| 20260905142437 | 31 | 164 | 1.6 | 3.2 | 0.00 | 0.00 | 0.00 | 76 | 1014.9 |
| 20260905141928 | 30 | 86 | 1.6 | 1.6 | 0.00 | 0.00 | 0.00 | 78 | 1014.8 |
| 20260905141428 | 30 | 295 | 3.2 | 3.2 | 0.00 | 0.00 | 0.00 | 78 | 1014.8 |
| 20260905140924 | 30 | 123 | 3.2 | 6.4 | 0.00 | 0.00 | 0.00 | 78 | 1015.0 |
| 20260905140420 | 30 | 151 | 1.6 | 1.6 | 0.00 | 0.00 | 0.00 | 78 | 1014.7 |
| 20260905135918 | 30 | 122 | 3.2 | 3.2 | 0.00 | 0.00 | 0.00 | 79 | 1014.8 |
| 20260905135414 | 30 | 158 | 0.0 | 0.0 | 0.00 | 0.00 | 0.00 | 80 | 1014.9 |
| 20260905134909 | 29 | 172 | 1.6 | 1.6 | 0.00 | 0.00 | 0.00 | 79 | 1014.8 |
| 20260905134408 | 29 | 247 | 3.2 | 3.2 | 0.00 | 0.00 | 0.00 | 81 | 1015.0 |
| 20260905133903 | 29 | 303 | 3.2 | 4.8 | 0.00 | 0.00 | 0.00 | 80 | 1015.1 |
| 20260905133358 | 29 | 308 | 9.7 | 11.3 | 0.00 | 0.00 | 0.00 | 79 | 1015.0 |
| 20260905132857 | 29 | 31 | 1.6 | 3.2 | 0.00 | 0.00 | 0.00 | 81 | 1014.9 |
| 20260905132353 | 29 | 155 | 0.0 | 0.0 | 0.00 | 0.00 | 0.00 | 82 | 1014.8 |
| 20260905131852 | 29 | 359 | 3.2 | 3.2 | 0.00 | 0.00 | 0.00 | 80 | 1015.0 |
| 20260905131348 | 28 | 155 | 0.0 | 0.0 | 0.00 | 0.00 | 0.00 | 83 | 1014.9 |
| 20260905130843 | 28 | 139 | 1.6 | 3.2 | 0.00 | 0.00 | 0.00 | 84 | 1015.0 |
| 20260905130341 | 28 | 328 | 1.6 | 3.2 | 0.00 | 0.00 | 0.00 | 85 | 1015.0 |
| 20260905125837 | 27 | 115 | 3.2 | 4.8 | 0.00 | 0.00 | 0.00 | 86 | 1015.0 |
| 20260905125332 | 27 | 30 | 1.6 | 1.6 | 0.00 | 0.00 | 0.00 | 87 | 1015.0 |
| 20260905124828 | 27 | 113 | 3.2 | 3.2 | 0.00 | 0.00 | 0.00 | 87 | 1015.1 |
| 20260905124325 | 27 | 251 | 3.2 | 3.2 | 0.00 | 0.00 | 0.00 | 88 | 1015.3 |
| 20260905123824 | -17 | 0.0 | 0.0 | 0.00 | 0.00 | 0.00 | 1015.1 | ||
| 20260905123322 | -17 | 0.0 | 0.0 | 0.00 | 0.00 | 0.00 | 1015.0 | ||
| 20260905122821 | 26 | 56 | 6.4 | 6.4 | 0.00 | 0.00 | 0.00 | 90 | 1014.9 |
| 20260905122320 | 26 | 56 | 6.4 | 6.4 | 0.00 | 0.00 | 0.00 | 90 | 1014.9 |
| 20260905121816 | 26 | 26 | 1.6 | 3.2 | 0.00 | 0.00 | 0.00 | 91 | 1014.9 |
| 20260905121313 | -17 | 0.0 | 0.0 | 0.00 | 0.00 | 0.00 | 1014.8 | ||
| 20260905120810 | -17 | 0.0 | 0.0 | 0.00 | 0.00 | 0.00 | 1014.9 | ||
| 20260905120306 | 25 | 158 | 3.2 | 3.2 | 0.00 | 0.00 | 0.00 | 95 | 1014.9 |
| 20260905115801 | 25 | 158 | 3.2 | 3.2 | 0.00 | 0.00 | 0.00 | 95 | 1014.9 |
| 20260905115300 | -17 | 0.0 | 0.0 | 0.00 | 0.00 | 0.00 | 1014.9 | ||
| 20260905114800 | -17 | 0.0 | 0.0 | 0.00 | 0.00 | 0.00 | 1014.9 |